Volver al catálogo

THORAD AGENA D DEB

ActivoPO
NORAD 42536·DEBRIS·🇺🇸 United States

Lanzado Apr 8, 1970 desde Vandenberg Space Force Base

Loading…

Próximos Pases (próximas 24 horas)

TLE

ActualizadoSource: Space-Track

Época: Sep 14, 2026, 03:08 UTC

1 42536U 70025SS  26257.13112899  .00002927  00000-0  15490-2 0  9991
2 42536  99.5022 209.6287 0059809  87.2768 273.5246 14.13663136653076

Sigue THORAD AGENA D DEB en tiempo real con AllMySat

Download on the App Store